This is the latest recevied weather packets stored in our database for station/object GBTWP-2. If no packets are shown the sender has not sent any weather packets the latest 1 day(s).
| Time | Temp. | Humidity | Pressure | Rain* | Wind** | Luminosity | Snow |
|---|---|---|---|---|---|---|---|
| 1778018401 | 12.78° C | 45% | 1009.7 hPa | 0 mm | 0.45 m/s, 298° | 60 W/m² | - |
| 1778018102 | 13.33° C | 50% | 1010 hPa | 0 mm | 0 m/s | 60 W/m² | - |
| 1778017801 | 13.33° C | 50% | 1009.8 hPa | 0 mm | 0 m/s | 66 W/m² | - |
| 1778017502 | 13.33° C | 46% | 1009.8 hPa | 0 mm | 0 m/s | 64 W/m² | - |
| 1778016301 | 13.33° C | 50% | 1009.9 hPa | 0 mm | 0.45 m/s, 236° | 76 W/m² | - |
| 1778015402 | 13.33° C | 52% | 1009.8 hPa | 0 mm | 0.89 m/s, 314° | 71 W/m² | - |
| 1778014502 | 13.33° C | 56% | 1009.9 hPa | 0 mm | 0.45 m/s, 253° | 89 W/m² | - |
| 1778013902 | 13.33° C | 52% | 1009.7 hPa | 0 mm | 0.89 m/s, 203° | 86 W/m² | - |
| 1778013601 | 13.33° C | 55% | 1009.8 hPa | 0 mm | 0.45 m/s, 297° | 93 W/m² | - |
| 1778013302 | 13.33° C | 52% | 1009.6 hPa | 0 mm | 0.89 m/s, 234° | 98 W/m² | - |
| 1778013001 | 13.33° C | 56% | 1009.8 hPa | 0 mm | 0 m/s | 99 W/m² | - |
| 1778012702 | 13.33° C | 56% | 1009.8 hPa | 0 mm | 1.34 m/s, 162° | 93 W/m² | - |
| 1778011801 | 13.33° C | 58% | 1009.8 hPa | 0 mm | 1.34 m/s, 244° | 99 W/m² | - |
| 1778010602 | 12.78° C | 64% | 1009.8 hPa | 0 mm | 1.34 m/s, 207° | 80 W/m² | - |
| 1778010301 | 12.78° C | 62% | 1009.9 hPa | 0 mm | 1.34 m/s, 167° | 91 W/m² | - |
| 1778009402 | 12.78° C | 63% | 1010 hPa | 0 mm | 0.89 m/s, 220° | 106 W/m² | - |
| 1778009101 | 12.78° C | 63% | 1010 hPa | 0 mm | 0.45 m/s, 335° | 87 W/m² | - |
| 1778008802 | 12.78° C | 63% | 1009.8 hPa | 0 mm | 0.89 m/s, 257° | 91 W/m² | - |
| 1778008202 | 12.22° C | 67% | 1010 hPa | 0 mm | 0.45 m/s, 338° | 111 W/m² | - |
| 1778007902 | 12.22° C | 65% | 1009.8 hPa | 0 mm | 0 m/s | 84 W/m² | - |
| 1778007601 | 12.22° C | 68% | 1009.8 hPa | 0 mm | 0.89 m/s, 258° | 70 W/m² | - |
| 1778007302 | 12.22° C | 66% | 1009.8 hPa | 0 mm | 0.89 m/s, 219° | 66 W/m² | - |
| 1778006401 | 12.78° C | 65% | 1010 hPa | 0 mm | 0.45 m/s, 309° | 72 W/m² | - |
| 1778005802 | 12.78° C | 65% | 1009.8 hPa | 0 mm | 1.34 m/s, 214° | 93 W/m² | - |
| 1778005501 | 12.78° C | 66% | 1009.6 hPa | 0 mm | 0.45 m/s, 275° | 158 W/m² | - |
* Rain latest hour (hover to see other rain measurements)
** Current wind speed in m/s (hover to see current wind gust speed)